Weather History for Volkel, Netherlands

Change the Weather History Date:

Saturday, December 8, 2012

  Actual Average Record
Temperature  
Mean Temperature 23 °F -  
Max Temperature 32 °F 41 °F 59 °F (2000)
Min Temperature 14 °F 32 °F 14 °F (2012)
Degree Days  
Heating Degree Days 42    
Moisture  
Dew Point 20 °F    
Average Humidity 94    
Maximum Humidity 100    
Minimum Humidity 86    
Precipitation  
Precipitation 0.00 in - - ()
Sea Level Pressure  
Sea Level Pressure 30.11 in    
Wind  
Wind Speed 4 mph ()    
Max Wind Speed 14 mph    
Max Gust Speed -    
Visibility 3.7 miles    
Events Fog    
Averages and records for this station are not official NWS values.
T = Trace of Precipitation, MM = Missing Value Source: Averaged Metar Reports

Daily Weather History Graph

Daily Weather History Graph

Search for Another Location

Airport:

Trip Planner

Search our weather history database for the weather conditions in past years. The results will help you decide how hot, cold, wet, or windy it might be!

Date:

Astronomy

Dec. 08, 2012 Rise Set
Actual Time 8:30 AM CET 4:27 PM CET
Civil Twilight 7:50 AM CET 5:07 PM CET
Nautical Twilight 7:07 AM CET 5:50 PM CET
Astronomical Twilight 6:26 AM CET 6:31 PM CET
Moon 2:03 AM CET (12/8) 1:19 PM CET (12/8)
Length of Visible Light 9h 17m
Length of Day
7h 57m
Waning Crescent, 31% of the Moon is Illuminated
Dec 8
Waning Crescent
Dec 13
New
Dec 20
First Quarter
Dec 28
Full
Jan 5
Last Quarter

Hourly Weather History & Observations

Time (CET) Temp. Windchill Dew Point Humidity Pressure Visibility Wind Dir Wind Speed Gust Speed Precip Events Conditions
12:20 AM 30.2 °F 23.4 °F 28.4 °F 93% 29.86 in 6.2 mi NE 6.9 mph - N/A   Overcast
12:25 AM 30.2 °F 24.3 °F 28.4 °F 93% 29.86 in 6.2 mi NE 5.8 mph - N/A   Overcast
12:27 AM 30.2 °F 25.4 °F 28.4 °F 93% 29.86 in 6.2 mi NE 4.6 mph - N/A   Overcast
12:33 AM 30.2 °F 25.4 °F 28.4 °F 93% 29.86 in 6.2 mi NE 4.6 mph - N/A   Overcast
12:55 AM 30.2 °F 24.3 °F 28.4 °F 93% 29.89 in 6.2 mi NE 5.8 mph - N/A   Overcast
1:19 AM 28.4 °F 22.2 °F 26.6 °F 93% 29.89 in 6.2 mi NNE 5.8 mph - N/A   Partly Cloudy
1:25 AM 28.4 °F 23.3 °F 24.8 °F 86% 29.89 in 6.2 mi NNE 4.6 mph - N/A   Scattered Clouds
1:26 AM 28.4 °F 23.3 °F 26.6 °F 93% 29.89 in 6.2 mi North 4.6 mph - N/A   Mostly Cloudy
1:55 AM 26.6 °F 21.2 °F 24.8 °F 93% 29.92 in 6.2 mi NNE 4.6 mph - N/A   Partly Cloudy
2:25 AM 24.8 °F 19.1 °F 23.0 °F 93% 29.95 in 6.2 mi NNE 4.6 mph - N/A   Unknown
2:34 AM 24.8 °F 17.9 °F 23.0 °F 93% 29.95 in 4.3 mi NNE 5.8 mph - N/A   Mist
2:38 AM 24.8 °F 17.9 °F 23.0 °F 93% 29.95 in 5.6 mi NE 5.8 mph - N/A   Mist
2:40 AM 23.0 °F 17.0 °F 21.2 °F 93% 29.95 in 4.3 mi NE 4.6 mph - N/A   Mist
2:55 AM 21.2 °F 13.6 °F 19.4 °F 93% 29.95 in 3.7 mi ENE 5.8 mph - N/A   Mist
2:59 AM 21.2 °F 13.6 °F 19.4 °F 93% 29.95 in 5.0 mi ENE 5.8 mph - N/A   Mist
3:03 AM 21.2 °F 13.6 °F 21.2 °F 100% 29.95 in 4.3 mi ENE 5.8 mph - N/A   Mist
3:07 AM 23.0 °F 15.8 °F 23.0 °F 100% 29.95 in 5.0 mi ENE 5.8 mph - N/A   Mist
3:20 AM 23.0 °F 17.0 °F 21.2 °F 93% 29.95 in 5.0 mi ENE 4.6 mph - N/A   Mist
3:25 AM 23.0 °F 17.0 °F 21.2 °F 93% 29.95 in 4.3 mi ENE 4.6 mph - N/A   Mist
3:29 AM 21.2 °F 14.9 °F 19.4 °F 93% 29.95 in 5.0 mi ENE 4.6 mph - N/A   Mist
3:33 AM 21.2 °F 14.9 °F 19.4 °F 93% 29.95 in 2.5 mi ENE 4.6 mph - N/A   Mist
3:35 AM 21.2 °F 14.9 °F 19.4 °F 93% 29.98 in 3.1 mi ENE 4.6 mph - N/A   Mist
3:48 AM 19.4 °F - 19.4 °F 100% 29.98 in 5.0 mi NNE 2.3 mph - N/A   Mist
3:55 AM 19.4 °F - 19.4 °F 100% 29.98 in 4.3 mi NNE 2.3 mph - N/A   Mist
4:00 AM 23.0 °F 18.4 °F 23.0 °F 100% 29.98 in 5.0 mi NNE 3.5 mph - N/A   Mist
4:01 AM 23.0 °F 18.4 °F 21.2 °F 93% 29.98 in 4.3 mi NNE 3.5 mph - N/A   Mist
4:09 AM 23.0 °F 18.4 °F 21.2 °F 93% 29.98 in - NE 3.5 mph - N/A   Partly Cloudy
4:13 AM 21.2 °F - 19.4 °F 93% 29.98 in 3.7 mi NE 2.3 mph - N/A   Partly Cloudy
4:14 AM 21.2 °F - 19.4 °F 93% 29.98 in - NE 2.3 mph - N/A   Partly Cloudy
4:25 AM 17.6 °F - 15.8 °F 93% 29.98 in 1.9 mi NE 2.3 mph - N/A   Mist
4:33 AM 17.6 °F - 15.8 °F 93% 30.01 in - NNE 2.3 mph - N/A   Mist
4:37 AM 17.6 °F - 15.8 °F 93% 30.01 in 3.1 mi NNE 2.3 mph - N/A   Mist
4:41 AM 17.6 °F - 15.8 °F 93% 30.01 in - NNE 2.3 mph - N/A   Mist
4:51 AM 19.4 °F - 17.6 °F 93% 30.01 in 5.0 mi North 2.3 mph - N/A   Mist
4:55 AM 17.6 °F - 15.8 °F 93% 30.01 in 3.7 mi North 2.3 mph - N/A   Mist
5:08 AM 19.4 °F 14.3 °F 19.4 °F 100% 30.01 in 3.7 mi NNW 3.5 mph - N/A   Mist
5:25 AM 17.6 °F 12.3 °F 15.8 °F 93% 30.01 in 3.7 mi NNW 3.5 mph - N/A   Mist
5:45 AM 21.2 °F 14.9 °F 19.4 °F 93% 30.04 in - NNW 4.6 mph - N/A   Mist
5:51 AM 21.2 °F 14.9 °F 19.4 °F 93% 30.04 in 3.7 mi NNW 4.6 mph - N/A   Mist
5:55 AM 17.6 °F 12.3 °F 15.8 °F 93% 30.04 in - North 3.5 mph - N/A   Mist
5:58 AM 17.6 °F 12.3 °F 15.8 °F 93% 30.04 in - North 3.5 mph - N/A   Mist
6:03 AM 17.6 °F 12.3 °F 15.8 °F 93% 30.04 in 1.4 mi North 3.5 mph - N/A   Mist
6:07 AM 15.8 °F 10.2 °F 14.0 °F 93% 30.04 in - North 3.5 mph - N/A   Mist
6:11 AM 17.6 °F 12.3 °F 15.8 °F 93% 30.06 in 3.1 mi NNW 3.5 mph - N/A   Mist
6:15 AM 21.2 °F 14.9 °F 19.4 °F 93% 30.06 in 5.0 mi NNW 4.6 mph - N/A   Mist
6:18 AM 21.2 °F 14.9 °F 19.4 °F 93% 30.06 in 4.3 mi North 4.6 mph - N/A   Mist
6:25 AM 21.2 °F 14.9 °F 19.4 °F 93% 30.06 in 5.0 mi North 4.6 mph - N/A   Mist
6:29 AM 21.2 °F 14.9 °F 19.4 °F 93% 30.06 in 4.3 mi NNW 4.6 mph - N/A   Mist
6:34 AM 21.2 °F 13.6 °F 19.4 °F 93% 30.06 in 5.0 mi North 5.8 mph - N/A   Mist
6:35 AM 21.2 °F 14.9 °F 19.4 °F 93% 30.06 in 4.3 mi North 4.6 mph - N/A   Mist
6:42 AM 21.2 °F 14.9 °F 19.4 °F 93% 30.06 in - North 4.6 mph - N/A   Mist
6:46 AM 21.2 °F 14.9 °F 19.4 °F 93% 30.06 in 3.7 mi North 4.6 mph - N/A   Mist
6:50 AM 21.2 °F 14.9 °F 19.4 °F 93% 30.06 in 5.0 mi North 4.6 mph - N/A   Mist
6:55 AM 21.2 °F 14.9 °F 19.4 °F 93% 30.06 in 4.3 mi North 4.6 mph - N/A   Mist
6:56 AM 21.2 °F 14.9 °F 19.4 °F 93% 30.06 in 5.0 mi North 4.6 mph - N/A   Mist
7:03 AM 21.2 °F 14.9 °F 19.4 °F 93% 30.06 in 4.3 mi North 4.6 mph - N/A   Mist
7:07 AM 21.2 °F 14.9 °F 19.4 °F 93% 30.06 in 5.0 mi North 4.6 mph - N/A   Mist
7:12 AM 21.2 °F 14.9 °F 19.4 °F 93% 30.06 in 4.3 mi North 4.6 mph - N/A   Mist
7:16 AM 19.4 °F 12.8 °F 19.4 °F 100% 30.06 in - North 4.6 mph - N/A   Mist
7:17 AM 17.6 °F 12.3 °F 15.8 °F 93% 30.09 in 3.1 mi North 3.5 mph - N/A   Mist
7:25 AM 19.4 °F - 17.6 °F 93% 30.09 in - North 2.3 mph - N/A   Mist
7:31 AM 19.4 °F - 17.6 °F 93% 30.09 in - North 2.3 mph - N/A   Mist
7:45 AM 17.6 °F - 17.6 °F 100% 30.09 in 0.6 mi North 2.3 mph - N/A   Mist
7:49 AM 19.4 °F - 17.6 °F 93% 30.09 in - North 1.2 mph - N/A Fog Light Freezing Fog
7:55 AM 15.8 °F - 14.0 °F 93% 30.09 in 0.4 mi NNW 1.2 mph - N/A Fog Light Freezing Fog
8:25 AM 15.8 °F - 14.0 °F 93% 30.12 in 0.2 mi NW 1.2 mph - N/A Fog Light Freezing Fog
8:29 AM 17.6 °F - 15.8 °F 93% 30.12 in 1.3 mi NNW 2.3 mph - N/A   Mist
8:34 AM 17.6 °F - 15.8 °F 93% 30.12 in - NNW 2.3 mph - N/A   Mist
8:39 AM 15.8 °F - 14.0 °F 93% 30.12 in 1.6 mi NNW 2.3 mph - N/A   Mist
8:43 AM 15.8 °F - 14.0 °F 93% 30.12 in 0.9 mi NNW 2.3 mph - N/A   Mist
8:55 AM 15.8 °F - 14.0 °F 93% 30.12 in 0.2 mi North 1.2 mph - N/A Fog Light Freezing Fog
9:05 AM 15.8 °F - 14.0 °F 93% 30.12 in 0.5 mi North 1.2 mph - N/A Fog Light Freezing Fog
9:09 AM 15.8 °F - 14.0 °F 93% 30.15 in 0.2 mi North 1.2 mph - N/A Fog Light Freezing Fog
9:13 AM 15.8 °F - 14.0 °F 93% 30.15 in 0.6 mi North 1.2 mph - N/A Fog Light Freezing Fog
9:17 AM 15.8 °F - 14.0 °F 93% 30.15 in - North 1.2 mph - N/A Fog Light Freezing Fog
9:25 AM 14.0 °F - 12.2 °F 93% 30.15 in 0.1 mi North 1.2 mph - N/A Fog Light Freezing Fog
9:55 AM 14.0 °F - 12.2 °F 93% 30.15 in 0.1 mi WSW 1.2 mph - N/A Fog Light Freezing Fog
10:25 AM 15.8 °F - 14.0 °F 93% 30.18 in 0.1 mi Calm Calm - N/A Fog Light Freezing Fog
10:30 AM 17.6 °F - 15.8 °F 93% 30.18 in 0.6 mi SW 1.2 mph - N/A   Mist
10:31 AM 17.6 °F - 17.6 °F 100% 30.18 in 0.3 mi West 1.2 mph - N/A Fog Light Freezing Fog
10:38 AM 19.4 °F - 17.6 °F 93% 30.18 in 0.5 mi WNW 1.2 mph - N/A Fog Light Freezing Fog
10:42 AM 19.4 °F - 19.4 °F 100% 30.18 in - NNW 1.2 mph - N/A Fog Light Freezing Fog
10:55 AM 19.4 °F - 19.4 °F 100% 30.18 in 0.2 mi WNW 1.2 mph - N/A Fog Light Freezing Fog
11:07 AM 19.4 °F - 17.6 °F 93% 30.18 in 0.6 mi WSW 1.2 mph - N/A   Mist
11:11 AM 19.4 °F - 19.4 °F 100% 30.18 in 0.2 mi SW 1.2 mph - N/A Fog Light Freezing Fog
11:15 AM 19.4 °F - 19.4 °F 100% 30.18 in 1.3 mi SW 1.2 mph - N/A   Mist
11:21 AM 17.6 °F - 17.6 °F 100% 30.18 in - SSW 2.3 mph - N/A   Mist
11:25 AM 21.2 °F - 21.2 °F 100% 30.21 in - SW 2.3 mph - N/A   Mist
11:35 AM 21.2 °F - 21.2 °F 100% 30.21 in - SSW 2.3 mph - N/A   Mist
11:45 AM 21.2 °F 16.4 °F 21.2 °F 100% 30.18 in 3.1 mi SW 3.5 mph - N/A   Mist
11:55 AM 19.4 °F 12.8 °F 17.6 °F 93% 30.18 in 3.7 mi SW 4.6 mph - N/A   Partly Cloudy
12:20 PM 23.0 °F 18.4 °F 21.2 °F 93% 30.18 in 5.0 mi WSW 3.5 mph - N/A   Mist
12:25 PM 21.2 °F - 21.2 °F 100% 30.21 in 4.3 mi WSW 2.3 mph - N/A   Mist
12:32 PM 23.0 °F - 21.2 °F 93% 30.21 in 5.0 mi SW 2.3 mph - N/A   Mist
12:36 PM 23.0 °F - 21.2 °F 93% 30.21 in 3.7 mi WSW 2.3 mph - N/A   Mist
12:55 PM 23.0 °F 18.4 °F 21.2 °F 93% 30.21 in 5.0 mi SW 3.5 mph - N/A   Mist
12:59 PM 23.0 °F 18.4 °F 21.2 °F 93% 30.21 in 4.3 mi SW 3.5 mph - N/A   Mist
1:03 PM 23.0 °F 18.4 °F 23.0 °F 100% 30.21 in 5.0 mi SW 3.5 mph - N/A   Mist
1:13 PM 23.0 °F 18.4 °F 23.0 °F 100% 30.21 in 5.0 mi SSW 3.5 mph - N/A   Mist
1:25 PM 24.8 °F 19.1 °F 23.0 °F 93% 30.21 in 5.6 mi SSW 4.6 mph - N/A   Mist
1:36 PM 24.8 °F 20.5 °F 23.0 °F 93% 30.18 in 4.3 mi South 3.5 mph - N/A   Mist
1:42 PM 23.0 °F 17.0 °F 21.2 °F 93% 30.18 in 5.0 mi SSW 4.6 mph - N/A   Mist
1:55 PM 23.0 °F 17.0 °F 21.2 °F 93% 30.21 in 5.6 mi SW 4.6 mph - N/A   Mist
2:25 PM 24.8 °F 19.1 °F 21.2 °F 86% 30.21 in 5.0 mi SW 4.6 mph - N/A   Mist
2:38 PM 26.6 °F 22.6 °F 23.0 °F 86% 30.21 in 5.0 mi SW 3.5 mph - N/A   Mist
2:55 PM 26.6 °F 21.2 °F 23.0 °F 86% 30.21 in 5.6 mi WSW 4.6 mph - N/A   Mist
3:25 PM 24.8 °F 17.9 °F 21.2 °F 86% 30.21 in 5.6 mi SSW 5.8 mph - N/A   Mist
3:55 PM 24.8 °F 19.1 °F 23.0 °F 93% 30.21 in 5.0 mi SSW 4.6 mph - N/A   Mist
4:08 PM 23.0 °F 17.0 °F 19.4 °F 86% 30.21 in 5.0 mi SW 4.6 mph - N/A   Scattered Clouds
4:14 PM 23.0 °F 17.0 °F 21.2 °F 93% 30.21 in 4.3 mi SSW 4.6 mph - N/A   Overcast
4:25 PM 23.0 °F 17.0 °F 21.2 °F 93% 30.21 in 4.3 mi SSW 4.6 mph - N/A   Partly Cloudy
4:55 PM 21.2 °F 13.6 °F 19.4 °F 93% 30.21 in 3.1 mi SSW 5.8 mph - N/A   Mist
5:08 PM 19.4 °F 10.4 °F 17.6 °F 93% 30.24 in - SSW 6.9 mph - N/A   Mist
5:20 PM 21.2 °F 11.7 °F 21.2 °F 100% 30.24 in 3.1 mi SSW 8.1 mph - N/A   Mist
5:25 PM 21.2 °F 11.7 °F 19.4 °F 93% 30.24 in - SW 8.1 mph - N/A   Mist
5:33 PM 21.2 °F 11.7 °F 21.2 °F 100% 30.24 in - SW 8.1 mph - N/A   Mist
5:43 PM 23.0 °F 14.7 °F 21.2 °F 93% 30.24 in - SW 6.9 mph - N/A   Mist
5:49 PM 23.0 °F 14.7 °F 21.2 °F 93% 30.24 in - SW 6.9 mph - N/A   Mist
5:55 PM 21.2 °F 11.7 °F 21.2 °F 100% 30.24 in - SW 8.1 mph - N/A   Mist
5:59 PM 23.0 °F 14.7 °F 21.2 °F 93% 30.24 in - SW 6.9 mph - N/A   Mist
6:12 PM 23.0 °F 14.7 °F 23.0 °F 100% 30.24 in 2.5 mi WSW 6.9 mph - N/A   Mist
6:16 PM 23.0 °F 14.7 °F 23.0 °F 100% 30.24 in - WSW 6.9 mph - N/A   Mist
6:20 PM 23.0 °F 14.7 °F 21.2 °F 93% 30.24 in - SW 6.9 mph - N/A   Partly Cloudy
6:25 PM 23.0 °F 14.7 °F 23.0 °F 100% 30.24 in - SW 6.9 mph - N/A   Partly Cloudy
6:55 PM 23.0 °F 13.9 °F 21.2 °F 93% 30.24 in - SW 8.1 mph - N/A   Mostly Cloudy
7:25 PM 23.0 °F 14.7 °F 21.2 °F 93% 30.24 in 1.8 mi SW 6.9 mph - N/A   Mostly Cloudy
7:30 PM 23.0 °F 14.7 °F 23.0 °F 100% 30.24 in - SW 6.9 mph - N/A   Scattered Clouds
7:41 PM 23.0 °F 14.7 °F 21.2 °F 93% 30.24 in 3.1 mi SW 6.9 mph - N/A   Mostly Cloudy
7:55 PM 23.0 °F 14.7 °F 23.0 °F 100% 30.24 in 3.1 mi SSW 6.9 mph - N/A   Overcast
8:25 PM 24.8 °F 15.3 °F 23.0 °F 93% 30.24 in 3.7 mi SW 9.2 mph - N/A   Overcast
8:55 PM 23.0 °F 12.4 °F 23.0 °F 100% 30.24 in 3.7 mi SW 10.4 mph - N/A   Mostly Cloudy
9:25 PM 26.6 °F 17.5 °F 26.6 °F 100% 30.24 in 4.3 mi SW 9.2 mph - N/A   Overcast
9:55 PM 28.4 °F 19.7 °F 26.6 °F 93% 30.24 in 4.3 mi SW 9.2 mph - N/A   Overcast
10:14 PM 30.2 °F 20.8 °F 28.4 °F 93% 30.24 in 5.0 mi SW 11.5 mph - N/A   Overcast
10:20 PM 30.2 °F 20.8 °F 28.4 °F 93% 30.24 in 4.3 mi SW 11.5 mph - N/A   Overcast
10:25 PM 30.2 °F 20.8 °F 28.4 °F 93% 30.21 in 4.3 mi SW 11.5 mph - N/A   Overcast
10:55 PM 30.2 °F 20.2 °F 28.4 °F 93% 30.21 in 4.3 mi SW 12.7 mph - N/A   Overcast
11:25 PM 32.0 °F 22.1 °F 30.2 °F 93% 30.21 in 4.3 mi SW 13.8 mph - N/A   Overcast
11:55 PM 32.0 °F 22.5 °F 30.2 °F 93% 30.18 in 4.3 mi SW 12.7 mph - N/A   Overcast